Date String (YYYY-MM-DD hh:mm:ss) UTC,Instrument flags,Ambient pressure (hPa),Sample flow (lpm),Bypass flow (lpm),Sample temperature (°C),Ambient temperature (°C),ASC tube jacket temperature (°C),LED temperature (°C),Box temperature (°C),Sample RH (%),Span deviation,Mass concentration (μg/m³),Mass concentration (μg/m³),Mass concentration (μg/m³)
DateTimeUTC,F1_M11,P_M11,Q1_M11,Q2_M11,T1_M11,T2_M11,T3_M11,T4_M11,T5_M11,U1_M11,ZSPAN_M11,X0_M11,X2_M11,X1_M11
2023-03-08 05:00:00,,0827.5,5.00,0.00,22.3,21.7,00.0,30.9,24.1,13.2,-001.4,0008.64,0006.23,0005.83
2023-03-08 05:01:00,,0827.5,5.00,0.00,22.3,21.3,00.0,30.9,24.0,13.1,-001.8,0008.71,0006.25,0005.83
2023-03-08 05:02:00,,0827.5,5.00,0.00,22.3,21.0,00.0,30.9,24.0,13.2,-001.8,0008.67,0006.24,0005.84
2023-03-08 05:03:00,,0827.5,5.01,0.00,22.2,20.7,00.0,30.9,23.9,13.2,-001.1,0008.66,0006.24,0005.84
2023-03-08 05:04:00,,0827.5,5.01,0.00,22.2,20.6,00.0,30.9,23.9,13.1,-001.3,0008.60,0006.22,0005.84
2023-03-08 05:05:00,,0827.6,5.00,0.00,22.2,20.5,00.0,30.9,23.9,13.1,-000.4,0008.63,0006.21,0005.85
2023-03-08 05:06:00,,0827.5,5.01,0.00,22.2,20.4,00.0,30.9,23.8,13.1,0000.0,0008.64,0006.20,0005.84
2023-03-08 05:07:00,,0827.6,4.99,0.00,22.1,20.2,00.0,30.9,23.8,13.2,0000.0,0008.60,0006.19,0005.84
2023-03-08 05:08:00,,0827.5,5.00,0.00,22.1,20.2,00.0,30.9,23.7,13.2,0000.0,0008.58,0006.17,0005.84
2023-03-08 05:09:00,,0827.5,5.00,0.00,22.1,20.1,00.0,30.8,23.7,13.2,-001.0,0008.59,0006.16,0005.85
2023-03-08 05:10:00,,0827.5,5.01,0.00,22.0,20.1,00.0,30.8,23.7,13.6,-001.8,0008.52,0006.14,0005.85
2023-03-08 05:11:00,,0827.5,5.01,0.00,22.0,20.1,00.0,30.8,23.6,13.7,-001.7,0008.49,0006.14,0005.86
2023-03-08 05:12:00,,0827.5,5.00,0.00,22.0,21.2,00.0,30.8,23.8,13.6,-001.4,0008.49,0006.13,0005.88
2023-03-08 05:13:00,,0827.5,5.04,0.00,22.2,22.4,00.0,30.8,24.1,13.5,-001.6,0008.86,0006.13,0005.88
2023-03-08 05:14:00,,0827.5,4.99,0.00,22.3,22.8,00.0,30.9,24.2,13.5,-001.7,0008.89,0006.12,0005.88
2023-03-08 05:15:00,,0827.5,4.99,0.00,22.3,22.3,00.0,30.9,24.2,13.6,-001.8,0009.02,0006.14,0005.88
2023-03-08 05:16:00,,0827.5,4.99,0.00,22.3,21.9,00.0,30.9,24.1,13.6,-001.6,0008.97,0006.14,0005.88
2023-03-08 05:17:00,,0827.5,5.01,0.00,22.3,21.6,00.0,30.9,24.1,13.4,-001.6,0009.00,0006.15,0005.89
2023-03-08 05:18:00,,0827.5,5.00,0.00,22.3,21.2,00.0,30.9,24.0,13.5,-001.9,0009.04,0006.16,0005.89
2023-03-08 05:19:00,,0827.4,5.00,0.00,22.3,21.0,00.0,30.9,24.0,13.7,-001.6,0009.08,0006.20,0005.91
2023-03-08 05:20:00,,0827.4,5.00,0.00,22.3,20.9,00.0,30.9,24.0,13.9,-001.3,0009.16,0006.24,0005.92
2023-03-08 05:21:00,,0827.4,4.99,0.00,22.3,20.8,00.0,30.9,24.0,13.9,-000.6,0009.21,0006.27,0005.93
2023-03-08 05:22:00,,0827.4,5.00,0.00,22.2,20.7,00.0,30.9,24.0,13.8,-000.6,0009.21,0006.27,0005.92
2023-03-08 05:23:00,,0827.4,5.00,0.00,22.2,20.6,00.0,30.9,24.0,13.6,-000.5,0009.11,0006.26,0005.91
2023-03-08 05:24:00,,0827.4,5.00,0.00,22.2,20.6,00.0,30.9,24.0,13.5,0000.2,0008.67,0006.24,0005.90
2023-03-08 05:25:00,,0827.4,5.01,0.00,22.2,20.5,00.0,30.9,23.9,13.5,-000.0,0008.58,0006.24,0005.90
2023-03-08 05:26:00,,0827.4,5.01,0.00,22.2,20.5,00.0,30.9,23.9,13.6,-000.2,0008.46,0006.22,0005.90
2023-03-08 05:27:00,,0827.4,4.99,0.00,22.2,20.5,00.0,30.9,23.9,13.6,-000.3,0008.47,0006.21,0005.90
2023-03-08 05:28:00,,0827.4,4.99,0.00,22.2,20.5,00.0,30.9,23.9,13.6,-000.9,0008.43,0006.19,0005.88
2023-03-08 05:29:00,,0827.4,4.99,0.00,22.1,20.4,00.0,30.9,23.8,13.8,-000.5,0008.43,0006.20,0005.89
2023-03-08 05:30:00,,0827.4,4.98,0.00,22.1,20.4,00.0,30.9,23.8,14.3,-000.3,0008.50,0006.23,0005.93
2023-03-08 05:31:00,,0827.4,5.01,0.00,22.1,20.4,00.0,30.9,23.8,14.3,-000.1,0008.56,0006.28,0006.01
2023-03-08 05:32:00,,0827.4,5.00,0.00,22.1,20.6,00.0,30.9,23.8,14.4,-000.0,0008.79,0006.32,0006.07
2023-03-08 05:33:00,,0827.4,5.02,0.00,22.2,21.7,00.0,30.9,24.0,14.2,0000.5,0009.25,0006.40,0006.14
2023-03-08 05:34:00,,0827.4,5.01,0.00,22.3,22.8,00.0,30.9,24.3,14.1,0000.2,0009.33,0006.47,0006.21
2023-03-08 05:35:00,,0827.4,5.02,0.00,22.4,23.1,00.0,30.9,24.4,13.9,-000.3,0009.42,0006.54,0006.27
2023-03-08 05:36:00,,0827.4,5.00,0.00,22.4,22.6,00.0,31.0,24.3,13.8,-000.3,0009.58,0006.61,0006.35
2023-03-08 05:37:00,,0827.4,5.00,0.00,22.4,22.2,00.0,31.0,24.3,13.7,-000.3,0009.80,0006.68,0006.41
2023-03-08 05:38:00,,0827.4,4.99,0.00,22.4,21.9,00.0,31.0,24.3,13.7,-000.4,0009.94,0006.79,0006.49
2023-03-08 05:39:00,,0827.4,5.01,0.00,22.4,21.6,00.0,31.0,24.2,13.7,-000.4,0010.07,0006.91,0006.60
2023-03-08 05:40:00,,0827.4,4.99,0.00,22.4,21.4,00.0,31.1,24.1,13.7,-000.5,0010.18,0007.01,0006.69
2023-03-08 05:41:00,,0827.4,4.99,0.00,22.4,21.2,00.0,31.1,24.1,13.7,-000.3,0010.22,0007.07,0006.75
2023-03-08 05:42:00,,0827.4,4.99,0.00,22.4,21.0,00.0,31.1,24.1,13.7,-000.2,0010.16,0007.10,0006.77
2023-03-08 05:43:00,,0827.4,5.01,0.00,22.4,20.9,00.0,31.1,24.1,13.7,-000.3,0010.13,0007.15,0006.81
2023-03-08 05:44:00,,0827.4,4.99,0.00,22.4,20.8,00.0,31.1,24.1,13.7,-000.6,0009.69,0007.17,0006.82
2023-03-08 05:45:00,,0827.5,5.00,0.00,22.3,20.7,00.0,31.1,24.0,13.8,-000.5,0009.80,0007.22,0006.84
2023-03-08 05:46:00,,0827.5,5.01,0.00,22.3,20.7,00.0,31.1,24.0,13.9,-000.4,0009.87,0007.28,0006.90
2023-03-08 05:47:00,,0827.5,5.00,0.00,22.3,20.6,00.0,31.0,23.9,13.9,-000.5,0009.98,0007.36,0006.96
2023-03-08 05:48:00,,0827.5,5.00,0.00,22.3,20.6,00.0,31.0,23.9,14.0,-000.5,0009.90,0007.44,0007.03
2023-03-08 05:49:00,,0827.5,5.01,0.00,22.2,20.5,00.0,31.0,23.9,14.0,-000.3,0009.89,0007.51,0007.11
2023-03-08 05:50:00,,0827.5,5.00,0.00,22.2,20.4,00.0,31.0,23.8,14.0,-000.0,0009.90,0007.56,0007.18
2023-03-08 05:51:00,,0827.5,5.00,0.00,22.2,20.5,00.0,31.0,23.8,14.0,0000.6,0009.99,0007.65,0007.26
2023-03-08 05:52:00,,0827.5,5.03,0.00,22.2,21.4,00.0,31.0,24.0,14.0,0000.2,0010.05,0007.72,0007.37
2023-03-08 05:53:00,,0827.5,4.99,0.00,22.3,22.5,00.0,31.0,24.3,13.9,-000.5,0010.26,0007.83,0007.47
2023-03-08 05:54:00,,0827.6,5.01,0.00,22.5,23.0,00.0,31.0,24.4,13.8,-000.9,0010.41,0007.87,0007.51
2023-03-08 05:55:00,,0827.5,4.99,0.00,22.5,22.6,00.0,31.1,24.4,13.8,-000.9,0010.41,0007.89,0007.55
2023-03-08 05:56:00,,0827.6,5.00,0.00,22.5,22.1,00.0,31.1,24.3,13.8,-001.1,0010.45,0007.94,0007.61
2023-03-08 05:57:00,,0827.5,5.02,0.00,22.5,21.8,00.0,31.1,24.2,13.8,-001.1,0010.54,0007.98,0007.65
2023-03-08 05:58:00,,0827.5,4.99,0.00,22.5,21.5,00.0,31.1,24.2,13.8,-000.8,0010.74,0008.08,0007.71
2023-03-08 05:59:00,,0827.5,5.00,0.00,22.4,21.3,00.0,31.1,24.1,13.9,-000.9,0010.82,0008.13,0007.75
